Flag Weather past 2 weeks in St. George, Utah, U.S.A.

Now
37 °F

Sunny.


Feels Like: 37 °F
Forecast: 39 / 66 °F
Wind: No wind

Location: Saint George

Current Time: Nov 27, 2014 at 9:38:22 AM

Latest Report: Nov 27, 2014 at 8:55 AM


Visibility: 10 mi

Pressure: 30.42 "Hg

Humidity: 41%

Dew point: 16 °F

Location of St. GeorgeLocation

Historic Weather in St. George — Graph

°F

St. George temperature yesterday

Maximum temperature yesterday: 59 °F (at 3:15 PM)
Minimum temperature yesterday: 30 °F (at 7:55 AM)
Average temperature yesterday: 44 °F

Past Weeks' High & Low Weather Summary

 TemperatureHumidityPressure
High68 °F (Nov 12, 3:15 PM)76% (Nov 15, 7:55 AM)30.53 "Hg (Nov 15, 7:55 AM)
Low27 °F (Nov 17, 5:15 AM)15% (Nov 20, 3:55 PM)29.85 "Hg (Nov 15, 7:55 PM)
Average46 °F33%30.19 "Hg
* Reported Nov 12 8:15 AM — Nov 27 8:35 AM, St. George, Weather by CustomWeather, © 2014

Note: Actual official high and low records may vary slightly from our data, if they occured in-between our weather recording intervals... More about our weather records

Advertising

St. George weather history for previous 24 hours

 ConditionsComfort  
Time TempWeatherWind HumidityBarometerVisibility
8:35 AM
Nov 27
36 °FSunny.No wind44%30.42 "Hg10 mi
8:15 AM34 °FSunny.No wind44%30.42 "Hg10 mi
7:55 AM34 °FSunny.No wind48%30.42 "Hg10 mi
7:35 AM34 °FSunny.No wind44%30.41 "Hg10 mi
7:15 AM30 °FClear.No wind43%30.41 "Hg10 mi
6:55 AM34 °FClear.No wind41%30.40 "Hg10 mi
6:35 AM34 °FClear.No wind41%30.40 "Hg10 mi
6:15 AM34 °FClear.No wind41%30.40 "Hg10 mi
5:55 AM36 °FClear.No wind44%30.39 "Hg10 mi
5:35 AM36 °FClear.3 mph38%30.39 "Hg10 mi
5:15 AM37 °FClear.No wind38%30.39 "Hg10 mi
4:55 AM37 °FClear.No wind41%30.39 "Hg10 mi
4:35 AM36 °FClear.No wind41%30.39 "Hg10 mi
3:55 AM37 °FClear.3 mph38%30.40 "Hg10 mi
3:35 AM36 °FClear.No wind38%30.40 "Hg10 mi
3:15 AM37 °FClear.No wind38%30.40 "Hg10 mi
2:55 AM36 °FClear.No wind38%30.41 "Hg10 mi
2:35 AM36 °FClear.No wind38%30.41 "Hg10 mi
1:55 AM41 °FClear.No wind36%30.40 "Hg10 mi
1:35 AM39 °FClear.No wind36%30.40 "Hg10 mi
1:15 AM39 °FClear.5 mph36%30.40 "Hg10 mi
12:55 AM39 °FClear.3 mph36%30.41 "Hg10 mi
12:35 AM39 °FClear.3 mph36%30.41 "Hg10 mi
12:15 AM43 °FClear.No wind34%30.41 "Hg10 mi
11:55 PM
Nov 26
41 °FClear.No wind33%30.41 "Hg10 mi
11:35 PM43 °FClear.No wind34%30.40 "Hg10 mi
11:15 PM43 °FClear.3 mph31%30.41 "Hg10 mi
10:55 PM45 °FClear.No wind27%30.40 "Hg10 mi
10:35 PM45 °FClear.No wind29%30.40 "Hg10 mi
10:15 PM45 °FClear.No wind27%30.40 "Hg10 mi
9:55 PM45 °FClear.3 mph27%30.39 "Hg10 mi
9:35 PM46 °FClear.No wind27%30.39 "Hg10 mi
9:15 PM46 °FClear.No wind25%30.39 "Hg10 mi
8:55 PM46 °FClear.No wind25%30.38 "Hg10 mi
8:35 PM45 °FClear.3 mph27%30.37 "Hg10 mi
7:55 PM50 °FClear.No wind25%30.37 "Hg10 mi
7:35 PM50 °FClear.5 mph24%30.36 "Hg10 mi
7:15 PM50 °FClear.No wind24%30.36 "Hg10 mi
6:55 PM52 °FClear.No wind22%30.36 "Hg10 mi
6:35 PM52 °FClear.No wind24%30.36 "Hg10 mi
6:15 PM52 °FClear.No wind22%30.36 "Hg10 mi
5:55 PM54 °FClear.No wind22%30.35 "Hg10 mi
5:35 PM55 °FClear.3 mph21%30.35 "Hg10 mi
4:35 PM59 °FSunny.No wind20%30.34 "Hg10 mi
4:15 PM59 °FSunny.No wind20%30.34 "Hg10 mi
3:55 PM57 °FSunny.No wind21%30.35 "Hg10 mi
3:35 PM59 °FSunny.No wind20%30.35 "Hg10 mi
3:15 PM59 °FSunny.No wind20%30.35 "Hg10 mi
2:55 PM57 °FSunny.No wind20%30.35 "Hg10 mi
2:35 PM57 °FSunny.No wind20%30.36 "Hg10 mi
2:15 PM55 °FSunny.No wind21%30.37 "Hg10 mi
1:55 PM54 °FSunny.No wind21%30.37 "Hg10 mi
1:35 PM55 °FSunny.No wind21%30.39 "Hg10 mi
1:15 PM54 °FSunny.No wind21%30.39 "Hg10 mi
12:55 PM52 °FSunny.No wind22%30.41 "Hg10 mi
12:35 PM52 °FSunny.No wind22%30.42 "Hg10 mi
12:15 PM50 °FSunny.No wind24%30.44 "Hg10 mi
11:55 AM48 °FSunny.No wind23%30.45 "Hg10 mi
11:35 AM46 °FSunny.No wind25%30.46 "Hg10 mi
11:15 AM45 °FSunny.No wind27%30.47 "Hg10 mi
10:55 AM45 °FSunny.No wind27%30.48 "Hg10 mi
10:35 AM43 °FSunny.No wind29%30.49 "Hg10 mi
10:15 AM43 °FSunny.No wind26%30.49 "Hg10 mi
9:55 AM39 °FSunny.No wind30%30.49 "Hg10 mi
9:35 AM37 °FSunny.No wind33%30.49 "Hg10 mi
9:15 AM37 °FSunny.No wind33%30.49 "Hg10 mi
Weather by CustomWeather, © 2014

See weather overviewHow to use our weather pages